Location: Bremen
(53.0793°N, 8.8017°E)
Time: 13:02:20
(UTC+01:00)

ARIANE 6 FM1 Upper Stage - Pass Details

Date: 17 December 2025
Orbit: 522 x 610 km, 62.0° (Epoch: 13 January)

Event Time Altitude Azimuth Distance (km) Brightness Sun altitude
Rises 07:35:18 0° 240° (WSW) 2,679 5.8 -8.1°
Reaches altitude 10° 07:37:32 10° 244° (WSW) 1,780 4.9 -7.8°
Maximum altitude 07:41:29 60° 326° (NW) 607 2.6 -7.3°
Drops below altitude 10° 07:45:24 10° 47° (NE) 1,769 5.4 -6.8°
Sets 07:47:37 0° 51° (NE) 2,660 6.4 -6.5°
